Location: *
(46.1833°N, 22.7667°E)
Time: 08:43:29
(UTC+00:00)

Cosmos 1025 Rocket - Pass Details

Date: 17 September 2019
Orbit: 593 x 619 km, 82.5° (Epoch: 17 October)

Event Time Altitude Azimuth Distance (km) Brightness Sun altitude
Rises 17:26:41 0° 350° (N) 2,849 6.8 -9.3°
Reaches altitude 10° 17:28:54 10° 351° (N) 1,940 5.9 -9.6°
Maximum altitude 17:33:12 89° 264° (W) 601 3.0 -10.4°
Drops below altitude 10° 17:37:27 10° 173° (S) 1,922 5.4 -11.1°
Sets 17:39:38 0° 173° (S) 2,819 6.2 -11.5°
